Preview of NWS' New Version of Forecast
This preview is not operational and should not be used for support decisions.

Regional Weather Roundup (RWR)

Issued by National Weather Service (NWS)

                            
000
ASUS43 KBIS 181510
RWRND 

NORTH DAKOTA REGIONAL WEATHER ROUNDUP
NATIONAL WEATHER SERVICE BISMARCK ND
900 AM CST MON FEB 18 2019

NOTE: "FAIR" INDICATES FEW OR NO CLOUDS BELOW 12,000 FEET WITH NO
SIGNIFICANT WEATHER AND/OR OBSTRUCTIONS TO VISIBILITY.


NDZ001>003-009>011-017-181600-
NORTHWEST NORTH DAKOTA
  
CITY           SKY/WX    TMP DP  RH WIND       PRES   REMARKS
WILLISTON      CLOUDY    -2  -6  83 CALM      30.42R FOG              
MINOT          CLOUDY    -4  -9  79 NW3       30.45R                  
MINOT AFB      CLOUDY    -5 -10  79 CALM      30.45R                  
$$
 
NDZ018>021-031>035-040>046-181600-
SOUTHWEST NORTH DAKOTA
  
CITY           SKY/WX    TMP DP  RH WIND       PRES   REMARKS
BISMARCK       MOSUNNY  -10 -14  82 SW3       30.48R                  
DICKINSON      PTSUNNY   -5 -11  75 W8        30.35R WCI -20          
GARRISON         N/A    -10 -15  78 N5        30.43R WCI -22          
HETTINGER ARPT CLOUDY    -5 -10  79 NW5       30.38R WCI -16          
$$
 
NDZ004>008-012>016-024-026-027-054-181600-
NORTHEAST NORTH DAKOTA
  
CITY           SKY/WX    TMP DP  RH WIND       PRES   REMARKS
GRAND FORKS    MOSUNNY  -10 -15  78 NW6       30.53R WCI -23          
GRND FRKS AFB  SUNNY     -6 -13  72 NW8       30.52R WCI -21          
DEVILS LAKE    MOSUNNY  -10 -14  82 NW3       30.49R                  
$$
 
NDZ022-023-025-028>030-036>039-047>053-181600-
SOUTHEAST NORTH DAKOTA
  
CITY           SKY/WX    TMP DP  RH WIND       PRES   REMARKS
FARGO          SUNNY     -7 -12  79 N8        30.51R WCI -23          
JAMESTOWN      CLOUDY    -7 -12  79 NW7       30.46R WCI -21          
$$